Time,TemperatureF,DewpointF,PressureIn,WindDirection,WindDirectionDegrees,WindSpeedMPH,WindSpeedGustMPH,Humidity,HourlyPrecipIn,Conditions,Clouds,dailyrainin,SoftwareType,DateUTC
2013-09-19 00:08:00,48.1,48.0,30.10,East,99,0.0,1.0,98,0.00,,,0.00,weatherlink.com 1.10,2013-09-19 04:08:00,
2013-09-19 00:23:00,48.5,48.0,30.10,East,99,0.0,0.0,98,0.00,,,0.00,weatherlink.com 1.10,2013-09-19 04:23:00,
2013-09-19 00:38:00,47.6,47.0,30.09,East,99,0.0,0.0,98,0.00,,,0.00,weatherlink.com 1.10,2013-09-19 04:38:00,
2013-09-19 00:53:00,48.0,48.0,30.09,East,99,0.0,1.0,98,0.00,,,0.00,weatherlink.com 1.10,2013-09-19 04:53:00,
2013-09-19 01:08:00,47.5,47.0,30.09,East,99,0.0,0.0,98,0.00,,,0.00,weatherlink.com 1.10,2013-09-19 05:08:00,
2013-09-19 01:23:00,47.0,47.0,30.09,East,99,0.0,0.0,98,0.00,,,0.00,weatherlink.com 1.10,2013-09-19 05:23:00,
2013-09-19 01:38:00,47.5,47.0,30.09,East,99,0.0,1.0,98,0.00,,,0.00,weatherlink.com 1.10,2013-09-19 05:38:00,
2013-09-19 01:53:00,46.6,46.0,30.09,East,99,0.0,0.0,97,0.00,,,0.00,weatherlink.com 1.10,2013-09-19 05:53:00,
2013-09-19 02:08:00,45.3,45.0,30.09,East,99,0.0,0.0,97,0.00,,,0.00,weatherlink.com 1.10,2013-09-19 06:08:00,
2013-09-19 02:23:00,45.8,45.0,30.09,East,99,0.0,0.0,98,0.00,,,0.00,weatherlink.com 1.10,2013-09-19 06:23:00,
2013-09-19 02:38:00,45.4,45.0,30.09,East,99,0.0,0.0,98,0.00,,,0.00,weatherlink.com 1.10,2013-09-19 06:38:00,
2013-09-19 02:53:00,45.5,45.0,30.10,East,99,0.0,1.0,98,0.00,,,0.00,weatherlink.com 1.10,2013-09-19 06:53:00,
2013-09-19 03:08:00,45.1,45.0,30.09,East,99,0.0,0.0,98,0.00,,,0.00,weatherlink.com 1.10,2013-09-19 07:08:00,
2013-09-19 03:23:00,45.2,45.0,30.09,East,99,0.0,0.0,98,0.00,,,0.00,weatherlink.com 1.10,2013-09-19 07:23:00,
2013-09-19 03:38:00,44.3,44.0,30.09,East,99,0.0,0.0,98,0.00,,,0.00,weatherlink.com 1.10,2013-09-19 07:38:00,
2013-09-19 03:53:00,44.2,44.0,30.09,East,99,0.0,0.0,98,0.00,,,0.00,weatherlink.com 1.10,2013-09-19 07:53:00,
2013-09-19 04:08:00,44.7,44.0,30.10,East,99,0.0,1.0,98,0.00,,,0.00,weatherlink.com 1.10,2013-09-19 08:08:00,
2013-09-19 04:24:00,44.8,44.0,30.10,East,99,0.0,0.0,98,0.00,,,0.00,weatherlink.com 1.10,2013-09-19 08:24:00,
2013-09-19 04:39:00,44.3,44.0,30.10,East,99,0.0,0.0,98,0.00,,,0.00,weatherlink.com 1.10,2013-09-19 08:39:00,
2013-09-19 04:54:00,43.9,43.0,30.10,East,99,0.0,0.0,98,0.00,,,0.00,weatherlink.com 1.10,2013-09-19 08:54:00,
2013-09-19 05:09:00,44.4,44.0,30.09,East,99,0.0,0.0,98,0.00,,,0.00,weatherlink.com 1.10,2013-09-19 09:09:00,
2013-09-19 05:24:00,44.4,44.0,30.09,East,99,0.0,0.0,98,0.00,,,0.00,weatherlink.com 1.10,2013-09-19 09:24:00,
2013-09-19 05:39:00,43.8,43.0,30.09,East,99,0.0,0.0,98,0.00,,,0.00,weatherlink.com 1.10,2013-09-19 09:39:00,
2013-09-19 05:54:00,43.8,43.0,30.09,East,99,0.0,0.0,98,0.00,,,0.00,weatherlink.com 1.10,2013-09-19 09:54:00,
2013-09-19 06:09:00,43.5,43.0,30.10,East,99,0.0,0.0,98,0.00,,,0.00,weatherlink.com 1.10,2013-09-19 10:09:00,
2013-09-19 06:24:00,42.8,42.0,30.09,East,99,0.0,0.0,98,0.00,,,0.00,weatherlink.com 1.10,2013-09-19 10:24:00,
2013-09-19 06:39:00,43.3,43.0,30.10,East,99,0.0,0.0,98,0.00,,,0.00,weatherlink.com 1.10,2013-09-19 10:39:00,
2013-09-19 06:54:00,43.3,43.0,30.10,East,99,0.0,0.0,98,0.00,,,0.00,weatherlink.com 1.10,2013-09-19 10:54:00,
2013-09-19 07:09:00,43.5,43.0,30.10,East,99,0.0,0.0,98,0.00,,,0.00,weatherlink.com 1.10,2013-09-19 11:09:00,
2013-09-19 07:24:00,43.4,43.0,30.10,East,99,0.0,0.0,99,0.00,,,0.00,weatherlink.com 1.10,2013-09-19 11:24:00,
2013-09-19 07:39:00,43.7,44.0,30.10,East,99,0.0,0.0,99,0.00,,,0.00,weatherlink.com 1.10,2013-09-19 11:39:00,
2013-09-19 07:54:00,44.4,44.0,30.10,East,99,0.0,0.0,99,0.00,,,0.00,weatherlink.com 1.10,2013-09-19 11:54:00,
2013-09-19 08:09:00,47.3,47.0,30.10,SSW,205,0.0,0.0,99,0.00,,,0.00,weatherlink.com 1.10,2013-09-19 12:09:00,
2013-09-19 08:24:00,51.7,52.0,30.10,SSW,205,0.0,1.0,99,0.00,,,0.00,weatherlink.com 1.10,2013-09-19 12:24:00,
2013-09-19 08:39:00,54.0,54.0,30.10,SSW,205,1.0,1.0,99,0.00,,,0.00,weatherlink.com 1.10,2013-09-19 12:39:00,
2013-09-19 08:54:00,56.3,56.0,30.10,SSW,205,0.0,1.0,98,0.00,,,0.00,weatherlink.com 1.10,2013-09-19 12:54:00,
2013-09-19 09:09:00,58.0,55.0,30.10,WSW,252,0.0,1.0,90,0.00,,,0.00,weatherlink.com 1.10,2013-09-19 13:09:00,
2013-09-19 09:24:00,59.4,55.0,30.11,WSW,253,0.0,2.0,84,0.00,,,0.00,weatherlink.com 1.10,2013-09-19 13:24:00,
2013-09-19 09:39:00,60.6,55.0,30.10,West,263,0.0,3.0,81,0.00,,,0.00,weatherlink.com 1.10,2013-09-19 13:39:00,
2013-09-19 09:54:00,62.8,56.0,30.10,West,265,1.0,2.0,77,0.00,,,0.00,weatherlink.com 1.10,2013-09-19 13:54:00,
2013-09-19 10:09:00,64.1,56.0,30.11,WSW,250,0.0,3.0,74,0.00,,,0.00,weatherlink.com 1.10,2013-09-19 14:09:00,
2013-09-19 10:24:00,65.8,56.0,30.11,WNW,302,3.0,3.0,71,0.00,,,0.00,weatherlink.com 1.10,2013-09-19 14:24:00,
2013-09-19 10:39:00,66.9,56.0,30.11,West,259,0.0,4.0,68,0.00,,,0.00,weatherlink.com 1.10,2013-09-19 14:39:00,
2013-09-19 10:54:00,68.8,57.0,30.10,West,270,2.0,4.0,67,0.00,,,0.00,weatherlink.com 1.10,2013-09-19 14:54:00,
2013-09-19 11:09:00,69.8,58.0,30.10,WSW,248,2.0,5.0,67,0.00,,,0.00,weatherlink.com 1.10,2013-09-19 15:09:00,
2013-09-19 11:25:00,70.6,57.0,30.10,SW,225,1.0,4.0,62,0.00,,,0.00,weatherlink.com 1.10,2013-09-19 15:25:00,
2013-09-19 11:40:00,71.6,57.0,30.10,West,259,2.0,5.0,60,0.00,,,0.00,weatherlink.com 1.10,2013-09-19 15:40:00,
2013-09-19 11:55:00,72.7,59.0,30.09,WSW,240,2.0,4.0,62,0.00,,,0.00,weatherlink.com 1.10,2013-09-19 15:55:00,
2013-09-19 12:10:00,73.1,56.0,30.09,South,184,1.0,5.0,55,0.00,,,0.00,weatherlink.com 1.10,2013-09-19 16:10:00,
2013-09-19 12:25:00,73.3,56.0,30.08,WNW,285,1.0,5.0,54,0.00,,,0.00,weatherlink.com 1.10,2013-09-19 16:25:00,
2013-09-19 12:40:00,73.9,59.0,30.08,South,187,4.0,4.0,60,0.00,,,0.00,weatherlink.com 1.10,2013-09-19 16:40:00,
2013-09-19 12:55:00,74.6,56.0,30.07,SE,125,3.0,4.0,52,0.00,,,0.00,weatherlink.com 1.10,2013-09-19 16:55:00,
2013-09-19 13:10:00,75.2,59.0,30.07,West,279,1.0,7.0,58,0.00,,,0.00,weatherlink.com 1.10,2013-09-19 17:10:00,
2013-09-19 13:25:00,75.9,58.0,30.05,SE,142,3.0,4.0,54,0.00,,,0.00,weatherlink.com 1.10,2013-09-19 17:25:00,
2013-09-19 13:40:00,75.2,57.0,30.04,South,187,3.0,5.0,54,0.00,,,0.00,weatherlink.com 1.10,2013-09-19 17:40:00,
2013-09-19 13:55:00,75.9,58.0,30.04,SW,236,1.0,5.0,54,0.00,,,0.00,weatherlink.com 1.10,2013-09-19 17:55:00,
2013-09-19 14:10:00,76.1,59.0,30.03,ESE,112,0.0,8.0,55,0.00,,,0.00,weatherlink.com 1.10,2013-09-19 18:10:00,
2013-09-19 14:25:00,76.2,59.0,30.03,West,273,0.0,5.0,56,0.00,,,0.00,weatherlink.com 1.10,2013-09-19 18:25:00,
2013-09-19 14:40:00,76.6,57.0,30.02,SE,126,1.0,6.0,51,0.00,,,0.00,weatherlink.com 1.10,2013-09-19 18:40:00,
2013-09-19 14:55:00,76.8,57.0,30.02,SE,127,2.0,5.0,50,0.00,,,0.00,weatherlink.com 1.10,2013-09-19 18:55:00,
2013-09-19 15:10:00,77.4,57.0,30.02,SE,127,3.0,4.0,50,0.00,,,0.00,weatherlink.com 1.10,2013-09-19 19:10:00,
2013-09-19 15:25:00,77.1,58.0,30.01,South,185,2.0,6.0,51,0.00,,,0.00,weatherlink.com 1.10,2013-09-19 19:25:00,
2013-09-19 15:40:00,77.1,57.0,30.01,ENE,74,1.0,5.0,50,0.00,,,0.00,weatherlink.com 1.10,2013-09-19 19:40:00,
2013-09-19 15:55:00,77.2,58.0,30.01,ENE,74,1.0,3.0,52,0.00,,,0.00,weatherlink.com 1.10,2013-09-19 19:55:00,
2013-09-19 16:10:00,77.4,60.0,30.00,WNW,287,0.0,6.0,56,0.00,,,0.00,weatherlink.com 1.10,2013-09-19 20:10:00,
2013-09-19 16:25:00,77.6,55.0,30.00,SE,124,2.0,4.0,46,0.00,,,0.00,weatherlink.com 1.10,2013-09-19 20:25:00,
2013-09-19 16:40:00,77.4,57.0,30.00,WSW,247,1.0,4.0,49,0.00,,,0.00,weatherlink.com 1.10,2013-09-19 20:40:00,
2013-09-19 16:55:00,78.1,57.0,30.00,WSW,240,0.0,4.0,49,0.00,,,0.00,weatherlink.com 1.10,2013-09-19 20:55:00,
2013-09-19 17:10:00,77.3,56.0,29.99,SSW,192,2.0,5.0,48,0.00,,,0.00,weatherlink.com 1.10,2013-09-19 21:10:00,
2013-09-19 17:25:00,77.5,56.0,29.99,ESE,119,2.0,4.0,47,0.00,,,0.00,weatherlink.com 1.10,2013-09-19 21:25:00,
2013-09-19 17:41:00,76.8,56.0,30.00,SSE,151,2.0,5.0,49,0.00,,,0.00,weatherlink.com 1.10,2013-09-19 21:41:00,
2013-09-19 17:56:00,76.0,56.0,30.00,SE,128,1.0,3.0,50,0.00,,,0.00,weatherlink.com 1.10,2013-09-19 21:56:00,
2013-09-19 18:11:00,77.0,56.0,30.00,South,187,0.0,1.0,49,0.00,,,0.00,weatherlink.com 1.10,2013-09-19 22:11:00,
2013-09-19 18:26:00,76.1,56.0,30.00,West,271,0.0,1.0,50,0.00,,,0.00,weatherlink.com 1.10,2013-09-19 22:26:00,
2013-09-19 18:41:00,73.9,58.0,30.01,SE,137,0.0,1.0,57,0.00,,,0.00,weatherlink.com 1.10,2013-09-19 22:41:00,
2013-09-19 18:56:00,71.3,59.0,30.01,SE,137,0.0,0.0,66,0.00,,,0.00,weatherlink.com 1.10,2013-09-19 22:56:00,
2013-09-19 19:11:00,68.7,58.0,30.00,North,8,1.0,2.0,69,0.00,,,0.00,weatherlink.com 1.10,2013-09-19 23:11:00,
2013-09-19 19:41:00,64.3,59.0,30.00,North,351,0.0,0.0,82,0.00,,,0.00,weatherlink.com 1.10,2013-09-19 23:41:00,
2013-09-19 19:56:00,63.0,59.0,30.00,North,351,0.0,0.0,86,0.00,,,0.00,weatherlink.com 1.10,2013-09-19 23:56:00,
2013-09-19 20:11:00,60.8,58.0,30.00,North,351,0.0,0.0,89,0.00,,,0.00,weatherlink.com 1.10,2013-09-20 00:11:00,
2013-09-19 20:26:00,60.2,58.0,30.01,North,351,0.0,0.0,92,0.00,,,0.00,weatherlink.com 1.10,2013-09-20 00:26:00,
2013-09-19 20:41:00,59.0,57.0,30.01,North,351,0.0,0.0,93,0.00,,,0.00,weatherlink.com 1.10,2013-09-20 00:41:00,
2013-09-19 20:56:00,59.0,58.0,30.01,NNW,334,0.0,1.0,95,0.00,,,0.00,weatherlink.com 1.10,2013-09-20 00:56:00,
2013-09-19 21:11:00,58.3,56.0,30.00,West,279,0.0,2.0,93,0.00,,,0.00,weatherlink.com 1.10,2013-09-20 01:11:00,
2013-09-19 21:26:00,57.5,56.0,30.00,West,280,0.0,1.0,95,0.00,,,0.00,weatherlink.com 1.10,2013-09-20 01:26:00,
2013-09-19 21:41:00,56.6,55.0,30.00,West,280,0.0,0.0,95,0.00,,,0.00,weatherlink.com 1.10,2013-09-20 01:41:00,
2013-09-19 21:56:00,56.5,55.0,30.00,West,280,0.0,0.0,96,0.00,,,0.00,weatherlink.com 1.10,2013-09-20 01:56:00,
2013-09-19 22:11:00,56.0,55.0,30.00,West,280,0.0,0.0,96,0.00,,,0.00,weatherlink.com 1.10,2013-09-20 02:11:00,
2013-09-19 22:26:00,55.6,55.0,30.00,West,280,0.0,1.0,96,0.00,,,0.00,weatherlink.com 1.10,2013-09-20 02:26:00,
2013-09-19 22:41:00,55.5,55.0,30.00,West,280,0.0,1.0,97,0.00,,,0.00,weatherlink.com 1.10,2013-09-20 02:41:00,
2013-09-19 22:56:00,54.7,54.0,29.99,West,280,0.0,0.0,97,0.00,,,0.00,weatherlink.com 1.10,2013-09-20 02:56:00,
2013-09-19 23:11:00,54.8,54.0,29.99,West,280,0.0,1.0,97,0.00,,,0.00,weatherlink.com 1.10,2013-09-20 03:11:00,
2013-09-19 23:26:00,54.3,54.0,29.99,West,280,0.0,0.0,97,0.00,,,0.00,weatherlink.com 1.10,2013-09-20 03:26:00,
2013-09-19 23:41:00,54.3,54.0,29.99,West,280,0.0,0.0,97,0.00,,,0.00,weatherlink.com 1.10,2013-09-20 03:41:00,
2013-09-19 23:56:00,53.5,53.0,29.99,West,280,0.0,0.0,97,0.00,,,0.00,weatherlink.com 1.10,2013-09-20 03:56:00,